Regional Weather Roundup
Issued by NWS

Home | Current Version | Previous Version | Graphics & Text | Print | Product List | Glossary On
Versions: 1 2 3 4 5 6 7 8 9 10 11 12 13 14 15 16 17 18 19 20 21 22 23 24 25 26 27 28 29 30 31 32 33 34 35 36 37 38 39 40 41 42 43 44 45 46 47 48 49 50
000
ASUS43 KLOT 300500
RWRIL

ILLINOIS REGIONAL WEATHER ROUNDUP
NATIONAL WEATHER SERVICE CHICAGO/ROMEOVILLE IL
1200 AM CDT WED JUL 30 2014

NOTE: "FAIR" INDICATES FEW OR NO CLOUDS BELOW 12,000 FEET WITH NO
SIGNIFICANT WEATHER AND/OR OBSTRUCTIONS TO VISIBILITY.

* THESE STATIONS ARE NOT UNDER NWS QUALITY CONTROL. THEY ALSO MAY NOT
  REPORT WEATHER SUCH AS PRECIPITATION OR FOG.

ILZ001-002-007-009-015-016-024-300600-
NORTHWEST ILLINOIS

CITY           SKY/WX    TMP DP  RH WIND       PRES   REMARKS
MOLINE         CLEAR     63  58  83 W5        30.05S
STERLING*      MOCLDY    63  55  77 NW3       30.06R
$$

ILZ003-004-008-010-011-017-018-300600-
NORTH CENTRAL ILLINOIS

CITY           SKY/WX    TMP DP  RH WIND       PRES   REMARKS
ROCKFORD       MOCLDY    65  53  65 CALM      30.07R
FREEPORT*      CLOUDY    60  58  91 CALM      30.07S
$$

ILZ005-006-012>014-019>023-300600-
NORTHEAST ILLINOIS

CITY           SKY/WX    TMP DP  RH WIND       PRES   REMARKS
CHICAGO-OHARE  PTCLDY    61  55  81 NW3       30.01F
CHICAGO-MIDWAY PTCLDY    66  56  70 NW3       30.01F
AURORA         PTCLDY    61  57  87 CALM      30.04S
LANSING*       PTCLDY    65  55  70 N6        30.02S
WAUKEGAN       PTCLDY    58  56  93 W3        30.00F
DUPAGE AIRPORT CLEAR     60  55  83 W3        30.02F
WHEELING       PTCLDY    63  58  83 CALM      30.02F
NORTHERLY ISL    N/A     64  59  83 NE3         N/A
$$

LMZ740>746-300600-
SOUTHERN LAKE MICHIGAN

STATION/POSITION SKY/WX   TEMP    WIND        PRES    VSBY  WAVE
                          AIR SEA DIR/SP/G                  HT/PER
                          (F)     (DEG/KT/KT) (MB)    (MI)  (FT/S)
SOUTHERN BUOY              61 61  270/ 12/ 16 1015.8F         1
WAUKEGAN HARBOR            62     260/  5/  7   N/A
HARRISON CRIB              63     350/ 20/ 24   N/A
BURNHAM HARBOR             63      40/  4/ 23   N/A
CALUMET HARBOR             64     330/  6/ 11 1015.2R
MICHIGAN CITY              66     180/  8/  9   N/A
MICHIGAN CITY 6N           64 69   30/ 14/ 17   N/A           1/ 2
ST. JOSEPH                 63 67  250/  8/ 14   N/A           2/ 3
$$

ILZ025>027-034>036-040-047-049-050-058-095>099-300600-
WEST-CENTRAL ILLINOIS

CITY           SKY/WX    TMP DP  RH WIND       PRES   REMARKS
QUINCY         CLEAR     63  57  81 CALM      30.09S
GALESBURG*     CLEAR     63  58  84 W5        30.07S
MACOMB*        CLEAR     58  57  97 W6        30.10S
$$

ILZ028>032-037-038-041>044-048-051>054-059>061-300600-
CENTRAL ILLINOIS

CITY           SKY/WX    TMP DP  RH WIND       PRES   REMARKS
PONTIAC        CLEAR     63  61  94 W3        30.04S
DECATUR        CLEAR     66  58  75 W5        30.08R
PEORIA         CLEAR     66  57  72 W5        30.06S
SPRINGFIELD    CLEAR     63  58  83 W6        30.08S
TAYLORVILLE    NOT AVBL
$$

ILZ033-039-045-046-055>057-062-063-300600-
EAST-CENTRAL ILLINOIS

CITY           SKY/WX    TMP DP  RH WIND       PRES   REMARKS
CHAMPAIGN      CLEAR     60  57  89 W6        30.07R
MATTOON        CLEAR     64  56  75 SW7       30.07S
$$

ILZ079-100>102-300600-
SOUTHWEST ILLINOIS

CITY           SKY/WX    TMP DP  RH WIND       PRES   REMARKS
BELLEVILLE     CLEAR     60  60  97 SW2       30.09R
CAHOKIA*       CLEAR     60  57  89 CALM      30.09S
$$

ILZ064>066-069>071-074>076-080>082-084>086-088>090-092>094-300600-
SOUTH-CENTRAL ILLINOIS

CITY           SKY/WX    TMP DP  RH WIND       PRES   REMARKS
CARBONDALE     CLEAR     61  57  87 CALM      30.10R
MT. VERNON     CLEAR     59  55  88 CALM      30.10S
$$

ILZ067-068-072-073-078-083-087-091-300600-
SOUTHEAST ILLINOIS

CITY           SKY/WX    TMP DP  RH WIND       PRES   REMARKS
LAWRENCEVILLE  CLEAR     61  58  90 CALM      30.08S
HARRISBURG*    CLEAR     59  59 100 CALM      30.11R
CARMI*         CLEAR     61  59  94 CALM      30.08S
$$

ABBREVIATIONS USED IN REMARKS
   TC - TEMPERATURE IN CELSIUS
  WCI - WIND CHILL INDEX
   HX - HEAT INDEX
  VSB - VISIBILITY
$$




USA.gov is the U.S. government's official web portal to all federal, state and local government web resources and services.